| time (UTC) | temp C | wind direction | speed KPH | gust KPH | rain 1hr cm | rain 24hr cm | rain mn cm | humidity % | barometer mb |
| 20260509181533 | 19 | 159 | 8.0 | 12.9 | 0.00 | 0.00 | 0.00 | 49 | 1020.6 |
| 20260509180032 | 18 | 153 | 1.6 | 11.3 | 0.00 | 0.00 | 0.00 | 52 | 1020.8 |
| 20260509174536 | 18 | 148 | 4.8 | 9.7 | 0.00 | 0.00 | 0.00 | 50 | 1020.9 |
| 20260509173032 | 17 | 148 | 3.2 | 9.7 | 0.00 | 0.00 | 0.00 | 50 | 1020.9 |
| 20260509171536 | 17 | 123 | 3.2 | 6.4 | 0.00 | 0.00 | 0.00 | 52 | 1020.9 |
| 20260509170036 | 17 | 0 | 0.0 | 4.8 | 0.00 | 0.00 | 0.00 | 52 | 1020.9 |
| 20260509164532 | 17 | 0 | 0.0 | 6.4 | 0.00 | 0.00 | 0.00 | 55 | 1021.2 |
| 20260509163034 | 16 | 0 | 1.6 | 4.8 | 0.00 | 0.00 | 0.00 | 57 | 1021.3 |
| 20260509161534 | 15 | 123 | 1.6 | 6.4 | 0.00 | 0.00 | 0.00 | 63 | 1021.3 |
| 20260509160037 | 15 | 0 | 0.0 | 6.4 | 0.00 | 0.00 | 0.00 | 69 | 1021.3 |
| 20260509154532 | 14 | 123 | 3.2 | 11.3 | 0.00 | 0.00 | 0.00 | 73 | 1021.3 |
| 20260509153042 | 13 | 111 | 3.2 | 6.4 | 0.00 | 0.00 | 0.00 | 75 | 1021.4 |
| 20260509151531 | 13 | 109 | 1.6 | 4.8 | 0.00 | 0.00 | 0.00 | 77 | 1021.2 |
| 20260509150040 | 12 | 110 | 3.2 | 6.4 | 0.00 | 0.00 | 0.00 | 79 | 1021.3 |
| 20260509144548 | 11 | 109 | 3.2 | 9.7 | 0.00 | 0.00 | 0.00 | 79 | 1021.1 |
| 20260509143034 | 11 | 109 | 1.6 | 9.7 | 0.00 | 0.00 | 0.00 | 80 | 1021.0 |
| 20260509141534 | 10 | 101 | 3.2 | 4.8 | 0.00 | 0.00 | 0.00 | 81 | 1020.9 |
| 20260509140033 | 10 | 101 | 0.0 | 9.7 | 0.00 | 0.00 | 0.00 | 81 | 1020.8 |
| 20260509134550 | 10 | 90 | 3.2 | 6.4 | 0.00 | 0.00 | 0.00 | 81 | 1020.6 |
| 20260509133037 | 9 | 0 | 0.0 | 6.4 | 0.00 | 0.00 | 0.00 | 82 | 1020.5 |
| 20260509131537 | 8 | 84 | 3.2 | 11.3 | 0.00 | 0.00 | 0.00 | 81 | 1020.2 |
| 20260509130046 | 8 | 0 | 0.0 | 0.0 | 0.00 | 0.00 | 0.00 | 81 | 1020.1 |
| 20260509124535 | 8 | 0 | 1.6 | 6.4 | 0.00 | 0.00 | 0.00 | 83 | 1020.0 |
| 20260509123033 | 7 | 0 | 0.0 | 0.0 | 0.00 | 0.00 | 0.00 | 81 | 1020.1 |
| 20260509121542 | 8 | 0 | 0.0 | 0.0 | 0.00 | 0.00 | 0.00 | 80 | 1019.9 |
| 20260509120033 | 8 | 0 | 0.0 | 0.0 | 0.00 | 0.00 | 0.00 | 78 | 1019.9 |
| 20260509114537 | 9 | 0 | 0.0 | 4.8 | 0.00 | 0.00 | 0.00 | 78 | 1019.9 |
| 20260509113036 | 9 | 272 | 4.8 | 9.7 | 0.00 | 0.00 | 0.00 | 77 | 1019.9 |
| 20260509111531 | 10 | 272 | 4.8 | 9.7 | 0.00 | 0.00 | 0.00 | 73 | 1019.8 |
| 20260509110034 | 10 | 272 | 4.8 | 9.7 | 0.00 | 0.00 | 0.00 | 71 | 1019.8 |
| 20260509104540 | 10 | 272 | 3.2 | 6.4 | 0.00 | 0.00 | 0.00 | 70 | 1019.8 |
| 20260509103032 | 11 | 272 | 6.4 | 11.3 | 0.00 | 0.00 | 0.00 | 67 | 1019.6 |
| 20260509101546 | 11 | 273 | 4.8 | 11.3 | 0.00 | 0.00 | 0.00 | 63 | 1019.5 |
| 20260509100035 | 12 | 273 | 11.3 | 17.7 | 0.00 | 0.00 | 0.00 | 62 | 1019.3 |
| 20260509094538 | 11 | 267 | 9.7 | 16.1 | 0.00 | 0.00 | 0.00 | 65 | 1019.4 |
| 20260509093033 | 11 | 267 | 6.4 | 19.3 | 0.00 | 0.00 | 0.00 | 64 | 1019.4 |
| 20260509091540 | 12 | 281 | 11.3 | 17.7 | 0.00 | 0.00 | 0.00 | 61 | 1019.2 |
| 20260509090038 | 11 | 255 | 9.7 | 12.9 | 0.00 | 0.00 | 0.00 | 67 | 1019.3 |
| 20260509084537 | 12 | 257 | 9.7 | 19.3 | 0.00 | 0.00 | 0.00 | 65 | 1019.2 |
| 20260509083036 | 12 | 250 | 8.0 | 16.1 | 0.00 | 0.00 | 0.00 | 62 | 1018.9 |
| 20260509081539 | 13 | 258 | 8.0 | 17.7 | 0.00 | 0.00 | 0.00 | 57 | 1018.8 |
| 20260509080036 | 13 | 279 | 14.5 | 24.1 | 0.00 | 0.00 | 0.00 | 52 | 1018.5 |
| 20260509074541 | 14 | 286 | 16.1 | 27.4 | 0.00 | 0.00 | 0.00 | 51 | 1018.7 |
| 20260509073033 | 14 | 269 | 19.3 | 32.2 | 0.00 | 0.00 | 0.00 | 50 | 1018.2 |
| 20260509071532 | 14 | 283 | 14.5 | 19.3 | 0.00 | 0.00 | 0.00 | 49 | 1018.4 |
| 20260509070039 | 14 | 286 | 14.5 | 29.0 | 0.00 | 0.00 | 0.00 | 47 | 1018.1 |
| 20260509064542 | 15 | 274 | 14.5 | 22.5 | 0.00 | 0.00 | 0.00 | 45 | 1017.8 |
| 20260509063033 | 15 | 309 | 11.3 | 25.7 | 0.00 | 0.00 | 0.00 | 43 | 1018.0 |
| 20260509061532 | 15 | 305 | 12.9 | 25.7 | 0.00 | 0.00 | 0.00 | 43 | 1017.4 |
| 20260509060036 | 15 | 313 | 12.9 | 30.6 | 0.00 | 0.00 | 0.00 | 42 | 1017.5 |
| 20260509054540 | 15 | 308 | 16.1 | 30.6 | 0.00 | 0.00 | 0.00 | 43 | 1016.9 |
| 20260509053035 | 15 | 302 | 17.7 | 25.7 | 0.00 | 0.00 | 0.00 | 42 | 1016.8 |
| 20260509051538 | 15 | 327 | 14.5 | 25.7 | 0.00 | 0.00 | 0.00 | 41 | 1016.8 |
| 20260509050037 | 16 | 291 | 17.7 | 30.6 | 0.00 | 0.00 | 0.00 | 40 | 1016.6 |
| 20260509044533 | 16 | 300 | 16.1 | 27.4 | 0.00 | 0.00 | 0.00 | 37 | 1016.8 |
| 20260509043034 | 17 | 329 | 20.9 | 32.2 | 0.00 | 0.00 | 0.00 | 35 | 1016.5 |
| 20260509041600 | 17 | 283 | 17.7 | 35.4 | 0.00 | 0.00 | 0.00 | 35 | 1016.3 |
| 20260509040032 | 17 | 300 | 17.7 | 27.4 | 0.00 | 0.00 | 0.00 | 33 | 1015.9 |
| 20260509034534 | 18 | 290 | 19.3 | 35.4 | 0.00 | 0.00 | 0.00 | 31 | 1015.6 |
| 20260509033030 | 18 | 305 | 19.3 | 33.8 | 0.00 | 0.00 | 0.00 | 32 | 1015.4 |
| 20260509031536 | 19 | 309 | 20.9 | 32.2 | 0.00 | 0.00 | 0.00 | 30 | 1015.1 |
| 20260509030032 | 20 | 287 | 14.5 | 24.1 | 0.00 | 0.00 | 0.00 | 30 | 1014.9 |
| 20260509024550 | 20 | 298 | 19.3 | 30.6 | 0.00 | 0.00 | 0.00 | 27 | 1014.5 |
| 20260509023032 | 21 | 293 | 20.9 | 35.4 | 0.00 | 0.00 | 0.00 | 25 | 1014.5 |
| 20260509021535 | 21 | 297 | 19.3 | 30.6 | 0.00 | 0.00 | 0.00 | 25 | 1014.2 |
| 20260509020044 | 22 | 282 | 19.3 | 29.0 | 0.00 | 0.00 | 0.00 | 24 | 1014.1 |
| 20260509014533 | 23 | 298 | 14.5 | 27.4 | 0.00 | 0.00 | 0.00 | 25 | 1014.0 |
| 20260509013040 | 23 | 295 | 14.5 | 25.7 | 0.00 | 0.00 | 0.00 | 25 | 1014.0 |
| 20260509011530 | 23 | 303 | 19.3 | 27.4 | 0.00 | 0.00 | 0.00 | 25 | 1013.9 |
| 20260509010031 | 24 | 309 | 14.5 | 24.1 | 0.00 | 0.00 | 0.00 | 28 | 1013.9 |
| 20260509004535 | 24 | 309 | 17.7 | 25.7 | 0.00 | 0.00 | 0.00 | 27 | 1013.7 |
| 20260509003034 | 25 | 329 | 16.1 | 25.7 | 0.00 | 0.00 | 0.00 | 27 | 1013.6 |
| 20260509001532 | 25 | 306 | 16.1 | 27.4 | 0.00 | 0.00 | 0.00 | 24 | 1013.6 |
| 20260509000030 | 25 | 323 | 9.7 | 29.0 | 0.00 | 0.00 | 0.00 | 29 | 1013.3 |
| 20260508234532 | 23 | 243 | 11.3 | 27.4 | 0.00 | 0.00 | 0.00 | 33 | 1013.3 |
| 20260508233032 | 23 | 221 | 11.3 | 20.9 | 0.00 | 0.00 | 0.00 | 34 | 1013.5 |
| 20260508231533 | 23 | 223 | 16.1 | 25.7 | 0.00 | 0.00 | 0.00 | 36 | 1013.4 |
| 20260508230040 | 23 | 233 | 16.1 | 25.7 | 0.00 | 0.00 | 0.00 | 37 | 1013.6 |
| 20260508224532 | 23 | 211 | 12.9 | 27.4 | 0.00 | 0.00 | 0.00 | 44 | 1013.7 |
| 20260508223032 | 23 | 211 | 11.3 | 22.5 | 0.00 | 0.00 | 0.00 | 44 | 1013.8 |
| 20260508221530 | 23 | 223 | 14.5 | 27.4 | 0.00 | 0.00 | 0.00 | 41 | 1013.8 |
| 20260508220033 | 23 | 233 | 16.1 | 27.4 | 0.00 | 0.00 | 0.00 | 39 | 1013.8 |
| 20260508214535 | 22 | 220 | 12.9 | 20.9 | 0.00 | 0.00 | 0.00 | 41 | 1014.0 |
| 20260508213039 | 22 | 218 | 11.3 | 22.5 | 0.00 | 0.00 | 0.00 | 41 | 1014.0 |
| 20260508211538 | 21 | 202 | 11.3 | 17.7 | 0.00 | 0.00 | 0.00 | 47 | 1014.0 |
| 20260508210030 | 20 | 227 | 8.0 | 17.7 | 0.00 | 0.00 | 0.00 | 51 | 1014.2 |
| 20260508204538 | 21 | 225 | 8.0 | 14.5 | 0.00 | 0.00 | 0.00 | 43 | 1014.2 |
| 20260508203038 | 21 | 220 | 9.7 | 16.1 | 0.00 | 0.00 | 0.00 | 42 | 1014.2 |
| 20260508201536 | 20 | 209 | 9.7 | 14.5 | 0.00 | 0.00 | 0.00 | 47 | 1014.2 |
| 20260508200033 | 20 | 212 | 8.0 | 22.5 | 0.00 | 0.00 | 0.00 | 48 | 1014.4 |
| 20260508194536 | 21 | 240 | 8.0 | 19.3 | 0.00 | 0.00 | 0.00 | 43 | 1014.3 |
| 20260508193035 | 21 | 214 | 9.7 | 17.7 | 0.00 | 0.00 | 0.00 | 42 | 1014.3 |
| 20260508191534 | 20 | 223 | 9.7 | 19.3 | 0.00 | 0.00 | 0.00 | 47 | 1014.5 |
| 20260508190032 | 20 | 199 | 8.0 | 17.7 | 0.00 | 0.00 | 0.00 | 53 | 1014.6 |
| 20260508184533 | 20 | 239 | 9.7 | 19.3 | 0.00 | 0.00 | 0.00 | 49 | 1014.9 |
| 20260508183034 | 20 | 190 | 9.7 | 19.3 | 0.00 | 0.00 | 0.00 | 46 | 1014.8 |